Regional Weather Roundup
Issued by NWS San Angelo, TX

Current Version | Previous Version | Text Only | Print | Product List | Glossary On
Versions: 1 2 3 4 5 6 7 8 9 10 11 12 13 14 15 16 17 18 19 20 21 22 23 24 25 26 27 28 29 30 31 32 33 34 35 36 37 38 39 40 41 42 43 44 45 46 47 48 49 50
000
ASUS44 KSJT 120711
RWRSJT
WEST CENTRAL TEXAS REGIONAL WEATHER ROUNDUP
NATIONAL WEATHER SERVICE SAN ANGELO TX
100 AM CST FRI FEB 12 2016

NOTE: "FAIR" INDICATES FEW OR NO CLOUDS BELOW 12,000 FEET WITH NO
SIGNIFICANT WEATHER AND/OR OBSTRUCTIONS TO VISIBILITY.

TXZ049-054-064>066-071>073-076>078-098-099-113-114-127-128-139-140-
154-155-168>170-120800
...LOCATIONS ACROSS WEST CENTRAL TEXAS...

CITY           SKY/WX    TMP DP  RH WIND       PRES   REMARKS
SAN ANGELO     CLEAR     43  24  47 SW3       30.17S
ABILENE        CLEAR     43  33  68 W5        30.18R
DYESS AFB      CLEAR     47  32  56 W1        30.17R
JUNCTION       PTCLDY    41  27  57 W3        30.15S
SWEETWATER     CLEAR     52  31  45 CALM      30.21S
BROWNWOOD      CLEAR     48  32  53 N3        30.15R
COLEMAN        SUNNY     51  32  48 NW6       30.16S
SONORA         PTCLDY    37  27  65 CALM      30.22S
OZONA          FAIR      39  25  56 NE6       30.21S WCI  35
BRADY          NOT AVBL
$$

TEXAS PANHANDLE/OKLAHOMA PANHANDLE

CITY           SKY/WX    TMP DP  RH WIND       PRES   REMARKS
AMARILLO       CLOUDY    37  23  56 SW10      30.20S WCI  30
BORGER         CLOUDY    45  26  47 VRB3      30.22R
CANADIAN       CLEAR     37  29  73 CALM      30.22R
DALHART        CLOUDY    41  21  44 N13       30.25R WCI  34
DUMAS          CLOUDY    35  19  53 NW8       30.22S WCI  28
GUYMON         NOT AVBL
HEREFORD       NOT AVBL
PAMPA          CLOUDY    45  29  52 N12G22    30.22R WCI  40
PERRYTON       CLOUDY    34  27  75 N9        30.21S WCI  26
$$

SOUTHERN PANHANDLE/SOUTH PLAINS/ROLLING PLAINS

CITY           SKY/WX    TMP DP  RH WIND       PRES   REMARKS
LUBBOCK        CLOUDY    42  25  50 SW3       30.20S
SNYDER           N/A     47  30  51 NE6       30.19S
CHILDRESS      CLOUDY    40  30  67 SW8       30.17F WCI  34
SEMINOLE       CLOUDY    38  26  64 NW5       30.21F WCI  34
$$

PERMIAN BASIN

CITY           SKY/WX    TMP DP  RH WIND       PRES   REMARKS
MIDLAND        CLOUDY    39  27  62 NW3       30.19S
ODESSA         CLOUDY    43  26  51 CALM      30.20S
WINK           CLOUDY    38  24  57 NW6       30.19R WCI  33
$$

FAR WEST/SOUTHWEST MOUNTAINS/TRANS PECOS

CITY           SKY/WX    TMP DP  RH WIND       PRES   REMARKS
ALPINE         CLOUDY    41  20  43 SW12      30.32S WCI  34
DRYDEN           N/A     58  20  22 N9        30.15S
EL PASO        PTCLDY    45  19  35 E3        30.23S
FORT STOCKTON  CLEAR     50  25  37 SW15      30.20S
GUADALUPE PASS CLOUDY    55  10  16 W13       30.30S
MARFA          CLOUDY    34  14  43 N9        30.29F WCI  27
PECOS          CLOUDY    37  22  53 CALM      30.20S
$$

DALLAS/FORT WORTH METROPLEX

CITY           SKY/WX    TMP DP  RH WIND       PRES   REMARKS
DFW AIRPORT    CLEAR     50  34  54 N9        30.12S
FTW MEACHAM    CLEAR     52  34  50 N7        30.13S
DAL-EXECUTIVE  CLEAR     55  34  45 NE3       30.12S
GRAND PRAIRIE  CLEAR     53  36  52 N6        30.14S
ADDISON        PTCLDY    57  35  44 NE9       30.15R
MESQUITE       SUNNY     50  40  67 N3        30.13S
LANCASTER      SUNNY     51  34  52 CALM      30.13S
$$

NORTH CENTRAL TEXAS

CITY           SKY/WX    TMP DP  RH WIND       PRES   REMARKS
SHRMAN/DENISON SUNNY     46  32  57 NE7       30.16F
GAINESVILLE    CLEAR     44  32  62 N5        30.17F
BRIDGEPORT     SUNNY     42  36  79 CALM      30.17S
DENTON         CLEAR     46  34  62 N3        30.15R
WAXAHACHIE     SUNNY     54  38  55 NE8       30.13S
GRANBURY       SUNNY     50  36  57 W5        30.14S
$$

WESTERN NORTH TEXAS

CITY           SKY/WX    TMP DP  RH WIND       PRES   REMARKS
WICHITA FALLS  CLEAR     42  32  67 N7        30.17F WCI  38
VERNON         CLOUDY    44  31  62 NE5       30.18F
BRECKENRIDGE   MOSUNNY   44  34  69 CALM      30.16S
COMANCHE       PTCLDY    53  33  48 W5        30.14S
$$

CENTRAL AND SOUTH CENTRAL TEXAS

CITY           SKY/WX    TMP DP  RH WIND       PRES   REMARKS
AUSTIN/BERGSTM PTCLDY    45  42  89 CALM      30.14S
WACO           CLEAR     46  36  68 CALM      30.11S
HILLSBORO      MOSUNNY   51  35  55 CALM      30.11S
TEMPLE         PTCLDY    53  42  66 S9        30.12S
KILLEEN-GRAY   PTCLDY    63  35  36 SW10      30.11S
FORT HOOD      CLEAR     60  37  41 S6        30.09S
GEORGETOWN     CLEAR     59  45  58 SW5       30.12S
LAGO VISTA     FAIR      63  46  54 SW8       30.14S
SAN MARCOS     CLEAR     52  46  82 SW6       30.16S
NEW BRAUNFELS  CLEAR     51  46  83 SW7       30.15S
RANDOLPH AFB   CLEAR     57  50  77 SW5       30.15F HAZE
SAN ANTONIO    CLEAR     52  44  74 CALM      30.16S
STINSON        CLEAR     51  45  79 CALM      30.14S
PLEASANTON     NOT AVBL
LA GRANGE      CLEAR     59  56  88 SW8       30.13F
GIDDINGS       MOSUNNY   56  51  85 S7        30.18S
$$

EAST TEXAS

CITY           SKY/WX    TMP DP  RH WIND       PRES   REMARKS
PARIS          CLEAR     45  28  53 E8        30.16F
CLARKSVILLE    NOT AVBL
TYLER          PTCLDY    58  37  45 CALM      30.12S
LONGVIEW       CLEAR     47  39  74 NE3       30.13S
PALESTINE      SUNNY     57  48  70 SE5       30.14S
NACOGDOCHES    PTCLDY    55  45  67 CALM      30.14S
$$

TEXAS HILL COUNTRY AND EDWARDS PLATEAU

CITY           SKY/WX    TMP DP  RH WIND       PRES   REMARKS
LLANO          SUNNY     45  34  65 CALM      30.16S
HORSESHOE BAY  FAIR      65  37  35 CALM      30.12S
KERRVILLE      CLEAR     41  35  80 CALM      30.17S
FREDERICKSBRG  CLEAR     42  31  67 CALM      30.15S
ROCKSPRINGS    SUNNY     59  30  33 S6        30.19S
HONDO          CLEAR     43  27  53 NE5       30.17F
UVALDE         SUNNY     49  33  54 E6        30.16S
DEL RIO        CLEAR     57  29  34 NE7       30.13S
$$

SOUTHEAST TEXAS

CITY           SKY/WX    TMP DP  RH WIND       PRES   REMARKS
COLLEGE STN    PTCLDY    57  52  83 S7        30.14S
CALDWELL       MOSUNNY   55  52  88 S8        30.17S
CROCKETT       MOSUNNY   54  46  76 CALM      30.17S
BRENHAM        PTCLDY    60  56  85 SW9       30.15F
HUNTSVILLE     PTCLDY    60  55  83 SW10G17   30.14S
CONROE         PTCLDY    59  56  89 SW6       30.16S
HOUSTON BUSH   CLEAR     60  56  86 S6        30.17S
HOUSTON HOBBY  PTCLDY    59  57  93 S7        30.16F
PERLAND        CLEAR     59  57  93 S6        30.19S
WHARTON        SUNNY     56  54  94 S8        30.18S
$$

THE UPPER TEXAS COAST

CITY           SKY/WX    TMP DP  RH WIND       PRES   REMARKS
ORANGE         SUNNY     57  54  89 SW7       30.19S
PORT ARTHUR    FOG       54  53  97 SW3       30.18S VSB 1/2
GALVESTON      PTCLDY    60  60 100 S10       30.19F
ANGLETON       PTCLDY    55  55 100 S6        30.18F
BAY CITY       FOG       54  54 100 S3        30.18F VSB 1/2
$$

TEXAS COASTAL BEND, RIO GRANDE PLAINS DEEP SOUTH TEXAS

CITY           SKY/WX    TMP DP  RH WIND       PRES   REMARKS
VICTORIA       CLEAR     60  58  92 S9        30.18S
BEEVILLE       FAIR      55  55  97 S6        30.16F
ROCKPORT       CLEAR     63  59  87 S6        30.17F
PORT ARANSAS   SUNNY     60  60 100 S7        30.16F
PORT LAVACA    SUNNY     59  58  98 S5        30.18S
CORPUS CHRISTI PTCLDY    57  55  93 S8        30.16F FOG
KINGSVILLE NAS CLEAR     53  53 100 CALM      30.16F
COTULLA        PTCLDY    57  42  57 SE8       30.14S
LAREDO         PTCLDY    57  48  72 SE8       30.14S
BROWNSVILLE    CLEAR     58  57  97 S7        30.18F
PORT ISABEL    CLEAR     60  59  96 S8        30.17F
HEBBRONVILLE   NOT AVBL
MCALLEN        CLEAR     63  57  81 SE12      30.16F
WESLACO        CLEAR     62  59  89 S12       30.16F
FALFURRIAS     SUNNY     56  53  88 CALM      30.15F
EDINBURG       MOSUNNY   64  59  84 S10       30.16F
$$



USA.gov is the U.S. government's official web portal to all federal, state and local government web resources and services.